Starlink 34898

operational
NORAD ID: 65895 Int'l Des: 2025-224 Owner: SPXS Country: US Constellation: starlink
LEOCIRCULAR

Über Starlink 34898

Beschreibung wird geladen...

Live-Position

3D-Globus wird geladen...

Nächste Überflüge

Höhenverlauf

Altitude vs Time

uPlot chart will show altitude changes over time

Zweizeiliger Elementsatz

1 65895U 25224P 25340.67543470 .00032721 00000-0 11115-2 0 9994
2 65895 53.1636 83.3627 0001124 83.7836 276.3293 15.30214399 10630
Epoch: 6. Dez. 2025 • Age: 15 hours

Aktueller Status

Höhe 482.6 km
Geschwindigkeit 7.62 km/s
Subsatellitenpunkt -24.60°S, 95.53°E
Startdatum 7. Okt. 2025
Alter 0.1 years
Typ internet

Technische Details

Klassifizierung Payload
Masse 575.00 kg
Trockenmasse 530.00 kg
Gesamtmasse 575.00 kg
Länge 0.30 m
Durchmesser 4.10 m
Spannweite 29.00 m
Form Box + pan
Hersteller SPXS
Bus-Typ Starlink V2MO
Phasenstatus In Orbit
Besitzer/Staat SPXS/US

Große Konstellationen

Loading constellations...